NORTHEAST SUFFOLK  -  Rip Current Statement Rip Current Statement        NORTHERN NASSAU  -  Rip Current Statement Rip Current Statement        NORTHERN QUEENS  -  Rip Current Statement Rip Current Statement        NORTHWEST SUFFOLK  -  Rip Current Statement Rip Current Statement        SOUTHEAST SUFFOLK  -  Rip Current Statement Rip Current Statement        SOUTHERN NASSAU  -  Rip Current Statement Rip Current Statement        SOUTHERN QUEENS  -  Rip Current Statement Rip Current Statement        SOUTHWEST SUFFOLK  -  Rip Current Statement Rip Current Statement      

Active alerts

Northern Queens
  Details for Northern Queens Rip Current Statement
Southern Queens
  Details for Southern Queens Rip Current Statement
Northern Nassau
  Details for Northern Nassau Rip Current Statement
Southern Nassau
  Details for Southern Nassau Rip Current Statement
Northwest Suffolk
  Details for Northwest Suffolk Rip Current Statement
Southwest Suffolk
  Details for Southwest Suffolk Rip Current Statement
Northeast Suffolk
  Details for Northeast Suffolk Rip Current Statement
Southeast Suffolk
  Details for Southeast Suffolk Rip Current Statement


WXM80 ListenWXM80 Stop

You find our weather info also at:

UK Metoffice

WeatherCloud

Weather Underground

Northeastern Weather Network

AWEKAS

Citizen Weather Observer Program (CWOP)

HAMweather, WeatherForYou, PWS Weather


Weather Underground History page Text

Daily Summary for January 25, 2017 Units:  Metric    English   Both
« Previous Day
Next Day »
Daily Weekly Monthly Yearly Custom
  High: Low: Average:
Temperature: 8.9 °C 2.7 °C 5 °C
Dew Point: 3.8 °C -0.3 °C 1.4 °C
Humidity: 91 % 60 % 78 %
Wind Speed: 17.4 km/h 0 km/h 7.2 km/h
Wind Gust: 31.5 km/h - -
Wind:- - West
Pressure: 1003.9 hPa 995.1 hPa -
Precipitation: 0 mm    
Historical Graphs
 
 
Tabular Data for January 25, 2017
Time Temperature Dew Point Pressure Wind Wind Speed Wind Gust Humidity Rainfall Rate (Hourly)
00:04 3.6 °C 2.2 °C 995.1 hPa WNW 7.1 km/h 16.7 km/h 91 % 0 mm
00:09 3.6 °C 2.2 °C 995.5 hPa NW 4.7 km/h 9.3 km/h 91 % 0 mm
00:14 3.6 °C 2.2 °C 995.5 hPa West 8.9 km/h 14.5 km/h 91 % 0 mm
00:20 3.6 °C 2.2 °C 995.5 hPa West 6.6 km/h 13 km/h 91 % 0 mm
00:25 3.5 °C 2.2 °C 995.5 hPa NW 9.5 km/h 13 km/h 91 % 0 mm
00:30 3.5 °C 2.2 °C 995.8 hPa West 10 km/h 11.1 km/h 91 % 0 mm
00:35 3.5 °C 2.2 °C 995.8 hPa West 5.8 km/h 16.7 km/h 91 % 0 mm
00:40 3.5 °C 2.2 °C 995.8 hPa WNW 6.1 km/h 14.5 km/h 91 % 0 mm
00:45 3.4 °C 2.1 °C 995.8 hPa WNW 6.4 km/h 14.8 km/h 91 % 0 mm
00:50 3.5 °C 2.2 °C 995.8 hPa NNW 10.8 km/h 16.7 km/h 91 % 0 mm
00:55 3.4 °C 1.9 °C 996.2 hPa West 7.7 km/h 16.1 km/h 90 % 0 mm
01:00 3.4 °C 1.9 °C 996.2 hPa West 9.2 km/h 19.3 km/h 90 % 0 mm
01:05 3.4 °C 1.9 °C 996.2 hPa WNW 9.8 km/h 16.7 km/h 90 % 0 mm
01:10 3.4 °C 1.7 °C 996.2 hPa WNW 8.5 km/h 16.7 km/h 89 % 0 mm
01:15 3.4 °C 1.7 °C 996.5 hPa WNW 9.3 km/h 22.2 km/h 89 % 0 mm
01:20 3.3 °C 1.6 °C 996.5 hPa WNW 10.5 km/h 17.7 km/h 88 % 0 mm
01:25 3.3 °C 1.6 °C 996.5 hPa WNW 5.8 km/h 14.8 km/h 88 % 0 mm
01:30 3.3 °C 1.5 °C 996.5 hPa West 13 km/h 18.5 km/h 88 % 0 mm
01:35 3.3 °C 1.3 °C 996.8 hPa WNW 11.6 km/h 18.5 km/h 87 % 0 mm
01:41 3.3 °C 1.3 °C 996.5 hPa WNW 10.3 km/h 24.1 km/h 87 % 0 mm
01:46 3.2 °C 1.1 °C 996.8 hPa SW 10.6 km/h 18.5 km/h 86 % 0 mm
01:51 3.2 °C 1.1 °C 996.8 hPa WNW 12.7 km/h 18.5 km/h 86 % 0 mm
01:56 3.2 °C 1.1 °C 997.2 hPa NW 7.2 km/h 24.1 km/h 86 % 0 mm
02:01 3.2 °C 1.1 °C 997.2 hPa WSW 8.4 km/h 18.5 km/h 86 % 0 mm
02:06 3.2 °C 1.1 °C 997.2 hPa NW 14.2 km/h 22.2 km/h 86 % 0 mm
02:11 3.2 °C 1.1 °C 997.5 hPa WNW 11.9 km/h 24.1 km/h 86 % 0 mm
02:16 3.1 °C 0.8 °C 997.5 hPa WNW 8.7 km/h 22.2 km/h 85 % 0 mm
02:21 3.1 °C 0.8 °C 997.5 hPa WNW 15 km/h 27.8 km/h 85 % 0 mm
02:26 3.1 °C 0.8 °C 997.9 hPa WNW 7.2 km/h 13 km/h 85 % 0 mm
02:31 3.1 °C 0.8 °C 997.9 hPa NW 12.4 km/h 20.9 km/h 85 % 0 mm
02:36 3.1 °C 0.8 °C 997.5 hPa NW 9.3 km/h 14.8 km/h 85 % 0 mm
02:37 3 °C 0.7 °C 997.5 hPa WNW 9.8 km/h 14.8 km/h 85 % 0 mm
02:42 3 °C 0.7 °C 997.9 hPa WNW 8.7 km/h 18.5 km/h 85 % 0 mm
02:47 2.9 °C 0.7 °C 997.9 hPa NW 9.2 km/h 20.4 km/h 85 % 0 mm
02:52 2.9 °C 0.6 °C 997.9 hPa WNW 10.6 km/h 14.8 km/h 85 % 0 mm
02:53 2.9 °C 0.6 °C 997.9 hPa NW 12.1 km/h 22.5 km/h 85 % 0 mm
02:58 2.9 °C 0.6 °C 997.5 hPa West 12.2 km/h 25.9 km/h 85 % 0 mm
03:03 2.8 °C 0.4 °C 997.5 hPa WNW 16.3 km/h 27.8 km/h 84 % 0 mm
03:08 2.8 °C 0.4 °C 997.9 hPa NW 5.3 km/h 13 km/h 84 % 0 mm
03:13 2.8 °C 0.4 °C 997.9 hPa WNW 7.9 km/h 20.4 km/h 84 % 0 mm
03:18 2.8 °C 0.4 °C 998.2 hPa West 12.1 km/h 20.4 km/h 84 % 0 mm
03:23 2.8 °C 0.4 °C 998.2 hPa WNW 10.8 km/h 18.5 km/h 84 % 0 mm
03:28 2.8 °C 0.2 °C 998.2 hPa WNW 6.8 km/h 17.7 km/h 83 % 0 mm
03:33 2.8 °C 0.2 °C 998.2 hPa WNW 10.1 km/h 18.5 km/h 83 % 0 mm
03:38 2.7 °C 0.1 °C 998.2 hPa WNW 15.8 km/h 24.1 km/h 83 % 0 mm
03:43 2.7 °C 0.1 °C 998.5 hPa NW 11.9 km/h 18.5 km/h 83 % 0 mm
03:48 2.7 °C 0.1 °C 998.5 hPa NW 12.7 km/h 18.5 km/h 83 % 0 mm
03:53 2.7 °C 0.1 °C 998.5 hPa WNW 6.3 km/h 14.8 km/h 83 % 0 mm
03:58 2.7 °C 0.1 °C 998.5 hPa West 10.5 km/h 25.9 km/h 83 % 0 mm
04:04 2.7 °C 0.1 °C 998.5 hPa SW 13.5 km/h 20.4 km/h 83 % 0 mm
04:09 2.7 °C 0.1 °C 998.5 hPa WNW 9 km/h 14.8 km/h 83 % 0 mm
04:14 2.7 °C -0.1 °C 998.5 hPa West 9.7 km/h 25.7 km/h 82 % 0 mm
04:19 2.7 °C -0.1 °C 998.9 hPa WNW 11.3 km/h 24.1 km/h 82 % 0 mm
04:24 2.7 °C -0.1 °C 998.9 hPa WNW 11.3 km/h 29 km/h 82 % 0 mm
04:29 2.7 °C -0.3 °C 998.9 hPa WNW 11.3 km/h 25.7 km/h 81 % 0 mm
04:34 2.7 °C -0.3 °C 999.2 hPa WNW 14.5 km/h 25.7 km/h 81 % 0 mm
04:39 2.7 °C -0.3 °C 999.2 hPa WNW 15.1 km/h 31.5 km/h 81 % 0 mm
04:44 2.7 °C -0.2 °C 999.2 hPa NW 10.8 km/h 24.1 km/h 81 % 0 mm
04:49 2.7 °C -0.2 °C 999.2 hPa WNW 10.1 km/h 18.5 km/h 81 % 0 mm
04:54 2.8 °C -0.2 °C 999.2 hPa NNW 13 km/h 29.6 km/h 81 % 0 mm
04:59 2.7 °C -0.2 °C 999.2 hPa West 10.3 km/h 18.5 km/h 81 % 0 mm
05:04 2.8 °C -0.2 °C 999.2 hPa West 8 km/h 20.4 km/h 81 % 0 mm
05:09 2.7 °C -0.2 °C 999.2 hPa WNW 11.9 km/h 25.9 km/h 81 % 0 mm
05:14 2.7 °C -0.2 °C 999.5 hPa WNW 15.3 km/h 20.9 km/h 81 % 0 mm
05:19 2.8 °C -0.2 °C 999.2 hPa West 6.9 km/h 13 km/h 81 % 0 mm
05:24 2.7 °C -0.2 °C 999.5 hPa WNW 15.8 km/h 18.5 km/h 81 % 0 mm
05:29 2.7 °C -0.2 °C 999.5 hPa WSW 3.9 km/h 13 km/h 81 % 0 mm
05:34 2.7 °C -0.2 °C 999.5 hPa West 9.8 km/h 27.8 km/h 81 % 0 mm
05:39 2.7 °C -0.2 °C 999.5 hPa WNW 6.4 km/h 27.8 km/h 81 % 0 mm
05:44 2.7 °C -0.2 °C 999.9 hPa WNW 10.5 km/h 19.3 km/h 81 % 0 mm
05:50 2.7 °C -0.2 °C 999.5 hPa West 7.7 km/h 16.7 km/h 81 % 0 mm
05:55 2.7 °C -0.2 °C 999.9 hPa WSW 13.8 km/h 25.9 km/h 81 % 0 mm
06:00 2.7 °C -0.2 °C 999.9 hPa NW 10.6 km/h 24.1 km/h 81 % 0 mm
06:05 2.7 °C -0.2 °C 999.9 hPa WNW 15.4 km/h 24.1 km/h 81 % 0 mm
06:10 2.7 °C -0.2 °C 999.9 hPa WNW 14.8 km/h 25.9 km/h 81 % 0 mm
06:15 2.8 °C -0.2 °C 1000.2 hPa West 8.9 km/h 20.4 km/h 81 % 0 mm
06:20 2.8 °C -0.2 °C 1000.2 hPa WNW 9.2 km/h 13 km/h 81 % 0 mm
06:25 2.8 °C -0.2 °C 1000.2 hPa WSW 17.4 km/h 24.1 km/h 81 % 0 mm
06:30 2.8 °C -0.2 °C 1000.2 hPa WNW 10.6 km/h 18.5 km/h 81 % 0 mm
06:35 2.8 °C -0.2 °C 1000.2 hPa WNW 6.9 km/h 13 km/h 81 % 0 mm
06:40 2.8 °C -0.2 °C 1000.2 hPa NNW 14.2 km/h 22.2 km/h 81 % 0 mm
06:45 2.8 °C -0.2 °C 1000.6 hPa NNW 11.1 km/h 18.5 km/h 81 % 0 mm
06:50 2.8 °C -0.2 °C 1000.6 hPa West 15.8 km/h 27.8 km/h 81 % 0 mm
06:55 2.8 °C -0.2 °C 1000.6 hPa WNW 12.9 km/h 20.9 km/h 81 % 0 mm
07:00 2.8 °C -0.1 °C 1000.6 hPa North 6.6 km/h 24.1 km/h 81 % 0 mm
07:05 2.8 °C -0.1 °C 1000.6 hPa NW 6.4 km/h 14.8 km/h 81 % 0 mm
07:10 2.8 °C -0.1 °C 1000.6 hPa NW 9.2 km/h 14.8 km/h 81 % 0 mm
07:15 2.8 °C -0.1 °C 1000.6 hPa NW 8.2 km/h 18.5 km/h 81 % 0 mm
07:20 2.8 °C -0.1 °C 1000.9 hPa WSW 4.3 km/h 16.7 km/h 81 % 0 mm
07:26 2.9 °C -0.1 °C 1000.9 hPa WNW 8.7 km/h 22.2 km/h 81 % 0 mm
07:31 2.9 °C -0.1 °C 1000.9 hPa WNW 6.6 km/h 11.1 km/h 81 % 0 mm
07:36 2.9 °C 0 °C 1000.9 hPa NW 11.1 km/h 19.3 km/h 81 % 0 mm
07:41 3 °C 0.1 °C 1000.9 hPa West 4.3 km/h 18.5 km/h 81 % 0 mm
07:46 3 °C 0.1 °C 1001.2 hPa NW 12.2 km/h 24.1 km/h 81 % 0 mm
07:51 3.1 °C -0.1 °C 1001.2 hPa WNW 5.8 km/h 22.2 km/h 80 % 0 mm
07:56 3.2 °C 0.2 °C 1001.2 hPa WNW 15.3 km/h 20.4 km/h 81 % 0 mm
08:01 3.2 °C 0.3 °C 1001.6 hPa West 11.9 km/h 18.5 km/h 81 % 0 mm
08:06 3.3 °C 0.4 °C 1001.6 hPa WNW 8.4 km/h 18.5 km/h 81 % 0 mm
08:11 3.4 °C 0.4 °C 1001.6 hPa NW 9.2 km/h 18.5 km/h 81 % 0 mm
08:16 3.6 °C 0.4 °C 1001.6 hPa NW 8.2 km/h 13 km/h 80 % 0 mm
08:21 3.7 °C 0.6 °C 1001.9 hPa WNW 9.7 km/h 18.5 km/h 80 % 0 mm
08:26 3.8 °C 0.4 °C 1001.9 hPa West 9.3 km/h 18.5 km/h 79 % 0 mm
08:32 3.9 °C 0.6 °C 1001.9 hPa West 8.5 km/h 18.5 km/h 79 % 0 mm
08:37 4 °C 0.7 °C 1002.3 hPa WNW 14.6 km/h 14.8 km/h 79 % 0 mm
08:42 4.1 °C 0.7 °C 1002.3 hPa WNW 9.7 km/h 16.7 km/h 79 % 0 mm
08:47 4.1 °C 0.6 °C 1002.3 hPa West 7.7 km/h 19.3 km/h 78 % 0 mm
08:52 4.1 °C 0.7 °C 1002.3 hPa West 13.4 km/h 22.2 km/h 79 % 0 mm
08:57 4.1 °C 0.8 °C 1002.3 hPa South 6.8 km/h 14.8 km/h 79 % 0 mm
09:02 4.2 °C 0.8 °C 1002.3 hPa SW 5 km/h 14.8 km/h 79 % 0 mm
09:07 4.2 °C 0.8 °C 1002.6 hPa West 6.3 km/h 14.5 km/h 79 % 0 mm
09:12 4.2 °C 0.9 °C 1002.3 hPa West 6.6 km/h 18.5 km/h 79 % 0 mm
09:17 4.2 °C 0.9 °C 1002.6 hPa WSW 7.2 km/h 12.9 km/h 79 % 0 mm
09:22 4.3 °C 0.9 °C 1002.6 hPa West 9.8 km/h 13 km/h 79 % 0 mm
09:27 4.3 °C 0.9 °C 1002.3 hPa West 8 km/h 16.7 km/h 79 % 0 mm
09:32 4.3 °C 0.8 °C 1002.6 hPa West 12.2 km/h 16.7 km/h 78 % 0 mm
09:37 4.3 °C 0.8 °C 1002.6 hPa WSW 8.9 km/h 18.5 km/h 78 % 0 mm
09:42 4.4 °C 1.1 °C 1002.6 hPa NW 11.1 km/h 20.4 km/h 79 % 0 mm
09:52 4.6 °C 1.2 °C 1002.6 hPa West 11.1 km/h 14.8 km/h 79 % 0 mm
09:57 4.7 °C 1.2 °C 1002.9 hPa West 7.2 km/h 16.7 km/h 78 % 0 mm
10:02 4.7 °C 1.2 °C 1002.9 hPa SSW 8.2 km/h 13 km/h 78 % 0 mm
10:07 4.8 °C 1.1 °C 1002.9 hPa West 8.5 km/h 18.5 km/h 77 % 0 mm
10:13 4.8 °C 1.1 °C 1002.9 hPa WSW 14.6 km/h 19.3 km/h 77 % 0 mm
10:18 4.9 °C 1.2 °C 1002.9 hPa WSW 10.3 km/h 16.7 km/h 77 % 0 mm
10:23 4.9 °C 1.2 °C 1002.9 hPa West 6.4 km/h 11.1 km/h 77 % 0 mm
10:28 5 °C 1.3 °C 1002.9 hPa WNW 4.2 km/h 13 km/h 77 % 0 mm
10:33 5.1 °C 1.4 °C 1003.3 hPa West 2.3 km/h 11.1 km/h 77 % 0 mm
10:38 5.2 °C 1.3 °C 1003.3 hPa WNW 6 km/h 18.5 km/h 76 % 0 mm
10:43 5.3 °C 1.4 °C 1002.9 hPa WNW 7.1 km/h 13 km/h 76 % 0 mm
10:48 5.4 °C 1.4 °C 1002.9 hPa WSW 6.4 km/h 14.8 km/h 75 % 0 mm
10:53 5.7 °C 1.6 °C 1002.9 hPa West 7.4 km/h 11.3 km/h 75 % 0 mm
10:58 5.8 °C 1.5 °C 1002.6 hPa West 5.8 km/h 16.7 km/h 74 % 0 mm
11:00 5.8 °C 1.6 °C 1002.6 hPa West 14.2 km/h 22.2 km/h 74 % 0 mm
11:05 6.1 °C 1.6 °C 1002.9 hPa WNW 15.1 km/h 20.4 km/h 73 % 0 mm
11:10 6.4 °C 1.9 °C 1002.9 hPa WSW 13.4 km/h 22.5 km/h 73 % 0 mm
11:15 6.6 °C 1.7 °C 1002.9 hPa West 15.3 km/h 27.4 km/h 71 % 0 mm
11:20 6.8 °C 1.7 °C 1002.9 hPa West 11.4 km/h 19.3 km/h 70 % 0 mm
11:25 6.9 °C 1.8 °C 1002.9 hPa WSW 11.4 km/h 24.1 km/h 70 % 0 mm
11:30 7 °C 1.7 °C 1002.9 hPa WNW 14.8 km/h 27.4 km/h 69 % 0 mm
11:35 7.1 °C 1.7 °C 1002.6 hPa WSW 13.2 km/h 18.5 km/h 69 % 0 mm
11:40 7.1 °C 1.6 °C 1002.3 hPa West 15.4 km/h 24.1 km/h 68 % 0 mm
11:45 7.1 °C 1.6 °C 1002.3 hPa WSW 13.5 km/h 27.8 km/h 68 % 0 mm
11:51 7.1 °C 1.6 °C 1002.3 hPa WNW 15.4 km/h 27.8 km/h 68 % 0 mm
11:56 7.1 °C 1.6 °C 1002.3 hPa WNW 10.1 km/h 18.5 km/h 68 % 0 mm
12:01 7.2 °C 1.7 °C 1001.9 hPa West 7.4 km/h 16.7 km/h 68 % 0 mm
12:06 7.2 °C 1.7 °C 1002.3 hPa West 6.1 km/h 18.5 km/h 68 % 0 mm
12:11 7.3 °C 1.8 °C 1001.9 hPa West 11.7 km/h 22.2 km/h 68 % 0 mm
12:16 7.5 °C 1.8 °C 1001.9 hPa West 9.2 km/h 16.7 km/h 67 % 0 mm
12:21 7.7 °C 1.5 °C 1002.3 hPa NW 5.8 km/h 14.8 km/h 65 % 0 mm
12:26 7.7 °C 1.6 °C 1002.6 hPa WNW 6 km/h 16.7 km/h 65 % 0 mm
12:31 7.7 °C 1.6 °C 1002.6 hPa West 11.4 km/h 18.5 km/h 65 % 0 mm
12:36 7.7 °C 1.5 °C 1002.3 hPa SW 12.2 km/h 19.3 km/h 65 % 0 mm
12:41 7.7 °C 1.6 °C 1001.9 hPa WNW 9 km/h 25.9 km/h 65 % 0 mm
12:46 7.9 °C 2.2 °C 1001.9 hPa West 2.4 km/h 6.4 km/h 67 % 0 mm
12:51 8.1 °C 1.9 °C 1001.6 hPa West 4.2 km/h 11.1 km/h 65 % 0 mm
12:56 8.3 °C 1.9 °C 1001.9 hPa SSW 11.7 km/h 17.7 km/h 64 % 0 mm
13:01 8.4 °C 1.8 °C 1001.9 hPa WNW 8 km/h 16.7 km/h 63 % 0 mm
13:06 8.6 °C 1.9 °C 1001.9 hPa NW 3.7 km/h 7.4 km/h 63 % 0 mm
13:11 8.7 °C 2 °C 1001.9 hPa WNW 5.6 km/h 11.1 km/h 63 % 0 mm
13:17 8.8 °C 1.9 °C 1001.9 hPa SW 12.7 km/h 20.4 km/h 62 % 0 mm
13:22 8.8 °C 1.9 °C 1001.9 hPa WSW 8.2 km/h 11.1 km/h 62 % 0 mm
13:27 8.9 °C 2 °C 1001.9 hPa WSW 9.5 km/h 16.7 km/h 62 % 0 mm
13:32 8.9 °C 1.8 °C 1001.9 hPa WNW 10.6 km/h 24.1 km/h 61 % 0 mm
13:37 8.9 °C 1.6 °C 1002.3 hPa NW 7.4 km/h 22.2 km/h 60 % 0 mm
13:42 8.9 °C 1.6 °C 1002.3 hPa West 13.2 km/h 25.9 km/h 60 % 0 mm
13:47 8.8 °C 1.5 °C 1002.3 hPa NW 10.3 km/h 20.4 km/h 60 % 0 mm
13:52 8.8 °C 1.7 °C 1002.3 hPa West 10.5 km/h 22.2 km/h 61 % 0 mm
13:57 8.8 °C 1.9 °C 1002.3 hPa West 9 km/h 24.1 km/h 62 % 0 mm
14:02 8.8 °C 2.1 °C 1002.3 hPa WNW 7.4 km/h 14.8 km/h 63 % 0 mm
14:07 8.8 °C 1.9 °C 1002.3 hPa WSW 11.9 km/h 19.3 km/h 62 % 0 mm
14:12 8.8 °C 2.2 °C 1002.6 hPa WSW 8.9 km/h 16.7 km/h 63 % 0 mm
14:17 8.8 °C 2.1 °C 1002.3 hPa West 6.8 km/h 27.8 km/h 63 % 0 mm
14:22 8.8 °C 2.1 °C 1002.6 hPa WSW 14.3 km/h 20.4 km/h 63 % 0 mm
14:27 8.7 °C 1.8 °C 1002.9 hPa West 15.1 km/h 22.2 km/h 62 % 0 mm
14:32 8.7 °C 2 °C 1002.6 hPa WSW 11.7 km/h 18.5 km/h 63 % 0 mm
14:37 8.6 °C 1.9 °C 1002.6 hPa West 8.5 km/h 13 km/h 63 % 0 mm
14:43 8.4 °C 2 °C 1002.9 hPa WNW 13.2 km/h 22.2 km/h 64 % 0 mm
14:48 8.3 °C 1.9 °C 1002.9 hPa SW 13.5 km/h 18.5 km/h 64 % 0 mm
14:53 8.3 °C 1.9 °C 1002.9 hPa NNW 8.2 km/h 18.5 km/h 64 % 0 mm
14:58 8.2 °C 2 °C 1003.3 hPa SW 8 km/h 20.4 km/h 65 % 0 mm
15:03 8.2 °C 2 °C 1003.3 hPa WNW 9 km/h 20.4 km/h 65 % 0 mm
15:08 8.2 °C 2 °C 1002.9 hPa SW 8.2 km/h 18.5 km/h 65 % 0 mm
15:13 8.1 °C 1.9 °C 1002.9 hPa WSW 15.1 km/h 25.7 km/h 65 % 0 mm
15:18 8.1 °C 1.9 °C 1002.9 hPa WNW 11.3 km/h 24.1 km/h 65 % 0 mm
15:23 8 °C 2.1 °C 1002.9 hPa WNW 10.5 km/h 25.9 km/h 66 % 0 mm
15:28 7.9 °C 2 °C 1002.9 hPa SW 11.7 km/h 16.7 km/h 66 % 0 mm
15:33 7.9 °C 1.9 °C 1003.3 hPa WSW 9.8 km/h 18.5 km/h 66 % 0 mm
15:38 7.8 °C 2.1 °C 1003.3 hPa West 12.1 km/h 18.5 km/h 67 % 0 mm
15:43 7.8 °C 2.1 °C 1003.3 hPa WNW 10.6 km/h 20.4 km/h 67 % 0 mm
15:48 7.7 °C 2 °C 1003.3 hPa West 7.2 km/h 16.7 km/h 67 % 0 mm
15:53 7.7 °C 2.1 °C 1003.3 hPa West 5.5 km/h 14.8 km/h 68 % 0 mm
15:58 7.6 °C 2.2 °C 1003.3 hPa SW 5.8 km/h 16.7 km/h 69 % 0 mm
16:03 7.4 °C 2.1 °C 1003.3 hPa WSW 8.7 km/h 18.5 km/h 69 % 0 mm
16:08 7.3 °C 2 °C 1003.3 hPa NW 8.4 km/h 17.7 km/h 69 % 0 mm
16:13 7.2 °C 2.1 °C 1003.3 hPa WNW 6.4 km/h 13 km/h 70 % 0 mm
16:18 7.2 °C 2.1 °C 1003.3 hPa WNW 6.3 km/h 14.8 km/h 70 % 0 mm
16:24 7.1 °C 1.9 °C 1002.9 hPa WNW 7.4 km/h 9.7 km/h 70 % 0 mm
16:29 7 °C 1.9 °C 1002.9 hPa WSW 9.3 km/h 14.8 km/h 70 % 0 mm
16:34 6.9 °C 2 °C 1002.9 hPa West 4.8 km/h 24.1 km/h 71 % 0 mm
16:39 6.8 °C 1.9 °C 1002.9 hPa WNW 8 km/h 16.1 km/h 71 % 0 mm
16:44 6.7 °C 1.8 °C 1003.3 hPa West 4.8 km/h 24.1 km/h 71 % 0 mm
16:49 6.6 °C 1.7 °C 1003.3 hPa West 9.7 km/h 19.3 km/h 71 % 0 mm
16:54 6.6 °C 1.9 °C 1003.3 hPa NNW 3.9 km/h 16.7 km/h 72 % 0 mm
16:59 6.5 °C 1.8 °C 1003.6 hPa WNW 4.8 km/h 11.3 km/h 72 % 0 mm
17:04 6.4 °C 1.7 °C 1003.6 hPa West 4.7 km/h 9.7 km/h 72 % 0 mm
17:09 6.3 °C 1.7 °C 1003.6 hPa West 6.1 km/h 11.1 km/h 72 % 0 mm
17:14 6.3 °C 1.8 °C 1003.9 hPa Calm   1.9 km/h 73 % 0 mm
17:19 6.3 °C 1.8 °C 1003.9 hPa WSW 0.5 km/h 5.6 km/h 73 % 0 mm
17:24 6.2 °C 1.7 °C 1003.6 hPa Calm   1.9 km/h 73 % 0 mm
17:29 6.2 °C 1.7 °C 1003.6 hPa NW 4.2 km/h 5.6 km/h 73 % 0 mm
17:34 6.1 °C 1.6 °C 1003.6 hPa NW 2.3 km/h 5.6 km/h 73 % 0 mm
17:39 6 °C 1.7 °C 1003.6 hPa WNW 2.7 km/h 5.6 km/h 74 % 0 mm
17:44 5.9 °C 1.7 °C 1003.6 hPa WNW 0.5 km/h 1.9 km/h 74 % 0 mm
17:49 5.9 °C 1.8 °C 1003.6 hPa WNW 0.6 km/h 5.6 km/h 75 % 0 mm
17:54 5.8 °C 1.7 °C 1003.9 hPa West 1.3 km/h 1.9 km/h 75 % 0 mm
17:59 5.8 °C 1.7 °C 1003.9 hPa West 0.8 km/h 3.7 km/h 75 % 0 mm
18:04 5.7 °C 1.8 °C 1003.9 hPa West 1 km/h 5.6 km/h 76 % 0 mm
18:10 5.6 °C 1.7 °C 1003.9 hPa West 1.4 km/h 1.9 km/h 76 % 0 mm
18:15 5.6 °C 1.7 °C 1003.6 hPa Calm     76 % 0 mm
18:20 5.5 °C 1.6 °C 1003.6 hPa Calm   1.9 km/h 76 % 0 mm
18:25 5.4 °C 1.7 °C 1003.6 hPa West 0.2 km/h 1.9 km/h 77 % 0 mm
18:30 5.3 °C 1.6 °C 1003.6 hPa Calm     77 % 0 mm
18:35 5.2 °C 1.7 °C 1003.6 hPa West 0.6 km/h 3.7 km/h 78 % 0 mm
18:40 5.2 °C 1.7 °C 1003.3 hPa Calm     78 % 0 mm
18:45 5.1 °C 1.8 °C 1003.6 hPa Calm     79 % 0 mm
18:50 5.1 °C 1.7 °C 1003.6 hPa Calm     79 % 0 mm
18:55 5 °C 1.8 °C 1003.6 hPa Calm     80 % 0 mm
19:00 4.9 °C 1.7 °C 1003.6 hPa Calm     80 % 0 mm
19:05 4.8 °C 1.6 °C 1003.3 hPa Calm     80 % 0 mm
19:10 4.7 °C 1.7 °C 1002.9 hPa Calm     81 % 0 mm
19:12 4.7 °C 1.7 °C 1002.9 hPa Calm     81 % 0 mm
19:17 4.6 °C 1.6 °C 1002.9 hPa Calm     81 % 0 mm
19:22 4.6 °C 1.7 °C 1002.9 hPa Calm     82 % 0 mm
19:27 4.4 °C 1.6 °C 1002.9 hPa Calm     82 % 0 mm
19:33 4.3 °C 1.7 °C 1002.9 hPa West 1 km/h 1.6 km/h 83 % 0 mm
19:38 4.3 °C 1.7 °C 1002.9 hPa West 1 km/h 3.7 km/h 83 % 0 mm
19:43 4.2 °C 1.8 °C 1002.9 hPa West 0.5 km/h 1.9 km/h 84 % 0 mm
19:48 4.2 °C 1.7 °C 1002.9 hPa Calm   1.9 km/h 84 % 0 mm
19:53 4.2 °C 1.7 °C 1002.9 hPa Calm     84 % 0 mm
19:58 4.1 °C 1.6 °C 1002.9 hPa Calm     84 % 0 mm
20:03 4.1 °C 1.6 °C 1002.9 hPa Calm     84 % 0 mm
20:08 4.1 °C 1.6 °C 1002.9 hPa Calm     84 % 0 mm
20:13 4 °C 1.6 °C 1002.9 hPa West 0.3 km/h 3.7 km/h 84 % 0 mm
20:18 4 °C 1.7 °C 1002.6 hPa West 1.6 km/h 3.7 km/h 85 % 0 mm
20:23 4 °C 1.7 °C 1002.6 hPa Calm   1.6 km/h 85 % 0 mm
20:28 4 °C 1.7 °C 1002.6 hPa West 2.3 km/h 3.7 km/h 85 % 0 mm
20:33 4 °C 1.7 °C 1002.6 hPa West 0.2 km/h 1.9 km/h 85 % 0 mm
20:38 4.1 °C 1.8 °C 1002.6 hPa West 1 km/h 1.6 km/h 85 % 0 mm
20:43 4.1 °C 1.8 °C 1002.6 hPa West 0.5 km/h 3.7 km/h 85 % 0 mm
20:48 4.1 °C 1.7 °C 1002.6 hPa West 0.2 km/h 1.6 km/h 84 % 0 mm
20:54 4.2 °C 1.8 °C 1002.6 hPa Calm   1.9 km/h 84 % 0 mm
20:59 4.3 °C 1.8 °C 1002.6 hPa Calm     84 % 0 mm
21:04 4.3 °C 1.8 °C 1002.6 hPa Calm     84 % 0 mm
21:09 4.3 °C 1.9 °C 1002.3 hPa Calm   1.6 km/h 84 % 0 mm
21:14 4.4 °C 2 °C 1002.3 hPa Calm   1.9 km/h 84 % 0 mm
21:19 4.4 °C 2 °C 1002.3 hPa Calm   1.6 km/h 84 % 0 mm
21:24 4.5 °C 1.9 °C 1002.3 hPa Calm     83 % 0 mm
21:29 4.6 °C 1.9 °C 1002.3 hPa Calm     83 % 0 mm
21:34 4.6 °C 1.9 °C 1002.3 hPa Calm   1.6 km/h 83 % 0 mm
21:39 4.7 °C 2 °C 1002.3 hPa Calm   6.4 km/h 83 % 0 mm
21:44 4.7 °C 2 °C 1002.3 hPa Calm   4.8 km/h 83 % 0 mm
21:49 4.7 °C 2.1 °C 1002.3 hPa SSW 3.5 km/h 5.6 km/h 83 % 0 mm
21:54 4.8 °C 1.9 °C 1001.9 hPa South 4.8 km/h 9.7 km/h 82 % 0 mm
21:59 4.9 °C 2.1 °C 1001.9 hPa South 6.8 km/h 11.3 km/h 82 % 0 mm
22:04 5.1 °C 2.2 °C 1001.9 hPa South 3.2 km/h 6.4 km/h 82 % 0 mm
22:09 5.1 °C 2.3 °C 1002.3 hPa South 3.5 km/h 6.4 km/h 82 % 0 mm
22:14 5.2 °C 2.4 °C 1001.9 hPa SSW 2.6 km/h 5.6 km/h 82 % 0 mm
22:19 5.3 °C 2.4 °C 1001.9 hPa SW 3.4 km/h 5.6 km/h 82 % 0 mm
22:24 5.4 °C 2.7 °C 1001.6 hPa SSW 4 km/h 7.4 km/h 83 % 0 mm
22:29 5.5 °C 2.8 °C 1001.6 hPa SSW 3.9 km/h 5.6 km/h 83 % 0 mm
22:34 5.6 °C 2.9 °C 1001.2 hPa SSW 2.3 km/h 5.6 km/h 83 % 0 mm
22:39 5.7 °C 3.1 °C 1001.2 hPa SW 4.7 km/h 7.4 km/h 83 % 0 mm
22:44 5.9 °C 3.2 °C 1001.2 hPa SSW 1.9 km/h 3.7 km/h 83 % 0 mm
22:49 6 °C 3.3 °C 1000.9 hPa SW 4 km/h 5.6 km/h 83 % 0 mm
22:54 6.1 °C 3.4 °C 1000.9 hPa SW 0.6 km/h 5.6 km/h 83 % 0 mm
22:59 6.2 °C 3.4 °C 1000.9 hPa SW 0.5 km/h 5.6 km/h 82 % 0 mm
23:04 6.3 °C 3.4 °C 1000.6 hPa SW 0.5 km/h 3.7 km/h 82 % 0 mm
23:10 6.4 °C 3.6 °C 1000.6 hPa SW 1.6 km/h 5.6 km/h 82 % 0 mm
23:15 6.4 °C 3.6 °C 1000.6 hPa SW 3.9 km/h 6.4 km/h 82 % 0 mm
23:20 6.6 °C 3.5 °C 1000.6 hPa SW 5.3 km/h 9.7 km/h 81 % 0 mm
23:25 6.7 °C 3.7 °C 1000.6 hPa SSW 4.5 km/h 5.6 km/h 81 % 0 mm
23:30 6.8 °C 3.8 °C 1000.6 hPa SSW 3.9 km/h 7.4 km/h 81 % 0 mm
23:35 6.9 °C 3.7 °C 1000.6 hPa SW 3.9 km/h 7.4 km/h 80 % 0 mm
23:36 6.9 °C 3.7 °C 1000.2 hPa SSW 3.4 km/h 7.4 km/h 80 % 0 mm
23:41 7.1 °C 3.8 °C 1000.2 hPa SW 4.3 km/h 9.3 km/h 80 % 0 mm
23:46 7.2 °C 3.8 °C 1000.2 hPa SSE 1.4 km/h 3.7 km/h 79 % 0 mm
23:51 7.2 °C 3.7 °C 999.9 hPa SSW 5.6 km/h 13 km/h 78 % 0 mm
23:56 7.3 °C 3.7 °C 999.9 hPa SSW 7.2 km/h 11.1 km/h 78 % 0 mm
Crab Meadow Weather
Compliments of Weather Underground - 3 mb

Script developed by  Jim McMurry - jmcmurry@mwt.net Adapted for the template by  Wim van der Kuil - Leuven-Template.eu

Astronomy: Mercury can get as hot as 800 degrees and can be as cold as 300 degrees below zero.